<?xml version="1.0"?>
<gpx xmlns="http://www.topografix.com/GPX/1/1" xmlns:xsi="http://www.w3.org/2001/XMLSchema-instance" version="1.1" creator="GPX RubyGem 1.0.0 -- http://dougfales.github.io/gpx/" xsi:schemaLocation="http://www.topografix.com/GPX/1/1 http://www.topografix.com/GPX/1/1/gpx.xsd">
  <metadata>
    <name/>
    <time>2026-05-07T19:15:00+00:00</time>
    <bound minlat="90.0" minlon="180.0" maxlat="-90.0" maxlon="-180.0"/>
  </metadata>
  <trk>
    <name/>
    <trkseg>
      <trkpt lat="46.525984" lon="8.172962">
        <time>1970-01-01T00:00:00+00:00</time>
        <ele>3216.0</ele>
      </trkpt>
      <trkpt lat="46.525969" lon="8.173047">
        <time>1970-01-01T00:00:00+00:00</time>
        <ele>3216.0</ele>
      </trkpt>
      <trkpt lat="46.526063" lon="8.173096">
        <time>1970-01-01T00:00:00+00:00</time>
        <ele>3219.0</ele>
      </trkpt>
      <trkpt lat="46.525953" lon="8.173054">
        <time>1970-01-01T00:00:00+00:00</time>
        <ele>3216.0</ele>
      </trkpt>
      <trkpt lat="46.52604" lon="8.17333">
        <time>1970-01-01T00:00:00+00:00</time>
        <ele>3217.0</ele>
      </trkpt>
      <trkpt lat="46.52601" lon="8.173267">
        <time>1970-01-01T00:00:00+00:00</time>
        <ele>3217.0</ele>
      </trkpt>
      <trkpt lat="46.525954" lon="8.173286">
        <time>1970-01-01T00:00:00+00:00</time>
        <ele>3215.0</ele>
      </trkpt>
      <trkpt lat="46.525924" lon="8.173436">
        <time>1970-01-01T00:00:00+00:00</time>
        <ele>3213.0</ele>
      </trkpt>
      <trkpt lat="46.526002" lon="8.17344">
        <time>1970-01-01T00:00:00+00:00</time>
        <ele>3215.0</ele>
      </trkpt>
      <trkpt lat="46.526009" lon="8.173499">
        <time>1970-01-01T00:00:00+00:00</time>
        <ele>3215.0</ele>
      </trkpt>
      <trkpt lat="46.526022" lon="8.173445">
        <time>1970-01-01T00:00:00+00:00</time>
        <ele>3216.0</ele>
      </trkpt>
      <trkpt lat="46.525972" lon="8.173509">
        <time>1970-01-01T00:00:00+00:00</time>
        <ele>3214.0</ele>
      </trkpt>
      <trkpt lat="46.52601" lon="8.173469">
        <time>1970-01-01T00:00:00+00:00</time>
        <ele>3215.0</ele>
      </trkpt>
      <trkpt lat="46.526038" lon="8.173577">
        <time>1970-01-01T00:00:00+00:00</time>
        <ele>3215.0</ele>
      </trkpt>
      <trkpt lat="46.525996" lon="8.173791">
        <time>1970-01-01T00:00:00+00:00</time>
        <ele>3211.0</ele>
      </trkpt>
      <trkpt lat="46.526077" lon="8.174009">
        <time>1970-01-01T00:00:00+00:00</time>
        <ele>3209.0</ele>
      </trkpt>
      <trkpt lat="46.525963" lon="8.174121">
        <time>1970-01-01T00:00:00+00:00</time>
        <ele>3205.0</ele>
      </trkpt>
      <trkpt lat="46.525799" lon="8.174109">
        <time>1970-01-01T00:00:00+00:00</time>
        <ele>3206.0</ele>
      </trkpt>
      <trkpt lat="46.525821" lon="8.174153">
        <time>1970-01-01T00:00:00+00:00</time>
        <ele>3206.0</ele>
      </trkpt>
      <trkpt lat="46.525844" lon="8.174094">
        <time>1970-01-01T00:00:00+00:00</time>
        <ele>3206.0</ele>
      </trkpt>
      <trkpt lat="46.525575" lon="8.17351">
        <time>1970-01-01T00:00:00+00:00</time>
        <ele>3210.0</ele>
      </trkpt>
      <trkpt lat="46.525727" lon="8.172054">
        <time>1970-01-01T00:00:00+00:00</time>
        <ele>3191.0</ele>
      </trkpt>
      <trkpt lat="46.525624" lon="8.171488">
        <time>1970-01-01T00:00:00+00:00</time>
        <ele>3181.0</ele>
      </trkpt>
      <trkpt lat="46.525677" lon="8.1707">
        <time>1970-01-01T00:00:00+00:00</time>
        <ele>3174.0</ele>
      </trkpt>
      <trkpt lat="46.525618" lon="8.17034">
        <time>1970-01-01T00:00:00+00:00</time>
        <ele>3165.0</ele>
      </trkpt>
      <trkpt lat="46.525787" lon="8.16943">
        <time>1970-01-01T00:00:00+00:00</time>
        <ele>3148.0</ele>
      </trkpt>
      <trkpt lat="46.525845" lon="8.168176">
        <time>1970-01-01T00:00:00+00:00</time>
        <ele>3121.0</ele>
      </trkpt>
      <trkpt lat="46.525764" lon="8.166778">
        <time>1970-01-01T00:00:00+00:00</time>
        <ele>3101.0</ele>
      </trkpt>
      <trkpt lat="46.525771" lon="8.165804">
        <time>1970-01-01T00:00:00+00:00</time>
        <ele>3091.0</ele>
      </trkpt>
      <trkpt lat="46.525685" lon="8.165187">
        <time>1970-01-01T00:00:00+00:00</time>
        <ele>3080.0</ele>
      </trkpt>
      <trkpt lat="46.525695" lon="8.165233">
        <time>1970-01-01T00:00:00+00:00</time>
        <ele>3081.0</ele>
      </trkpt>
      <trkpt lat="46.525748" lon="8.165168">
        <time>1970-01-01T00:00:00+00:00</time>
        <ele>3082.0</ele>
      </trkpt>
      <trkpt lat="46.525881" lon="8.164078">
        <time>1970-01-01T00:00:00+00:00</time>
        <ele>3078.0</ele>
      </trkpt>
      <trkpt lat="46.526004" lon="8.162334">
        <time>1970-01-01T00:00:00+00:00</time>
        <ele>3080.0</ele>
      </trkpt>
      <trkpt lat="46.525958" lon="8.161011">
        <time>1970-01-01T00:00:00+00:00</time>
        <ele>3085.0</ele>
      </trkpt>
      <trkpt lat="46.525838" lon="8.160412">
        <time>1970-01-01T00:00:00+00:00</time>
        <ele>3086.0</ele>
      </trkpt>
      <trkpt lat="46.525672" lon="8.159001">
        <time>1970-01-01T00:00:00+00:00</time>
        <ele>3092.0</ele>
      </trkpt>
      <trkpt lat="46.525367" lon="8.157966">
        <time>1970-01-01T00:00:00+00:00</time>
        <ele>3096.0</ele>
      </trkpt>
      <trkpt lat="46.52526" lon="8.157805">
        <time>1970-01-01T00:00:00+00:00</time>
        <ele>3097.0</ele>
      </trkpt>
      <trkpt lat="46.524941" lon="8.156942">
        <time>1970-01-01T00:00:00+00:00</time>
        <ele>3104.0</ele>
      </trkpt>
      <trkpt lat="46.524301" lon="8.156014">
        <time>1970-01-01T00:00:00+00:00</time>
        <ele>3125.0</ele>
      </trkpt>
      <trkpt lat="46.523596" lon="8.154441">
        <time>1970-01-01T00:00:00+00:00</time>
        <ele>3156.0</ele>
      </trkpt>
      <trkpt lat="46.523417" lon="8.15385">
        <time>1970-01-01T00:00:00+00:00</time>
        <ele>3162.0</ele>
      </trkpt>
      <trkpt lat="46.523206" lon="8.152818">
        <time>1970-01-01T00:00:00+00:00</time>
        <ele>3173.0</ele>
      </trkpt>
      <trkpt lat="46.523136" lon="8.151912">
        <time>1970-01-01T00:00:00+00:00</time>
        <ele>3181.0</ele>
      </trkpt>
      <trkpt lat="46.522946" lon="8.150588">
        <time>1970-01-01T00:00:00+00:00</time>
        <ele>3188.0</ele>
      </trkpt>
      <trkpt lat="46.522706" lon="8.149482">
        <time>1970-01-01T00:00:00+00:00</time>
        <ele>3193.0</ele>
      </trkpt>
      <trkpt lat="46.522559" lon="8.149103">
        <time>1970-01-01T00:00:00+00:00</time>
        <ele>3197.0</ele>
      </trkpt>
      <trkpt lat="46.52227" lon="8.148526">
        <time>1970-01-01T00:00:00+00:00</time>
        <ele>3214.0</ele>
      </trkpt>
      <trkpt lat="46.522155" lon="8.148541">
        <time>1970-01-01T00:00:00+00:00</time>
        <ele>3218.0</ele>
      </trkpt>
      <trkpt lat="46.522088" lon="8.148411">
        <time>1970-01-01T00:00:00+00:00</time>
        <ele>3225.0</ele>
      </trkpt>
      <trkpt lat="46.52219" lon="8.148571">
        <time>1970-01-01T00:00:00+00:00</time>
        <ele>3216.0</ele>
      </trkpt>
      <trkpt lat="46.522121" lon="8.148507">
        <time>1970-01-01T00:00:00+00:00</time>
        <ele>3221.0</ele>
      </trkpt>
      <trkpt lat="46.522149" lon="8.148548">
        <time>1970-01-01T00:00:00+00:00</time>
        <ele>3219.0</ele>
      </trkpt>
      <trkpt lat="46.521529" lon="8.149221">
        <time>1970-01-01T00:00:00+00:00</time>
        <ele>3234.0</ele>
      </trkpt>
      <trkpt lat="46.521293" lon="8.149265">
        <time>1970-01-01T00:00:00+00:00</time>
        <ele>3242.0</ele>
      </trkpt>
      <trkpt lat="46.521131" lon="8.148532">
        <time>1970-01-01T00:00:00+00:00</time>
        <ele>3262.0</ele>
      </trkpt>
      <trkpt lat="46.520999" lon="8.148164">
        <time>1970-01-01T00:00:00+00:00</time>
        <ele>3270.0</ele>
      </trkpt>
      <trkpt lat="46.520936" lon="8.147647">
        <time>1970-01-01T00:00:00+00:00</time>
        <ele>3278.0</ele>
      </trkpt>
      <trkpt lat="46.520923" lon="8.146831">
        <time>1970-01-01T00:00:00+00:00</time>
        <ele>3289.0</ele>
      </trkpt>
      <trkpt lat="46.520998" lon="8.145662">
        <time>1970-01-01T00:00:00+00:00</time>
        <ele>3303.0</ele>
      </trkpt>
      <trkpt lat="46.520977" lon="8.144762">
        <time>1970-01-01T00:00:00+00:00</time>
        <ele>3313.0</ele>
      </trkpt>
      <trkpt lat="46.520888" lon="8.143619">
        <time>1970-01-01T00:00:00+00:00</time>
        <ele>3328.0</ele>
      </trkpt>
      <trkpt lat="46.520902" lon="8.143237">
        <time>1970-01-01T00:00:00+00:00</time>
        <ele>3331.0</ele>
      </trkpt>
      <trkpt lat="46.52095" lon="8.143229">
        <time>1970-01-01T00:00:00+00:00</time>
        <ele>3332.0</ele>
      </trkpt>
      <trkpt lat="46.520916" lon="8.143202">
        <time>1970-01-01T00:00:00+00:00</time>
        <ele>3332.0</ele>
      </trkpt>
      <trkpt lat="46.520941" lon="8.143402">
        <time>1970-01-01T00:00:00+00:00</time>
        <ele>3330.0</ele>
      </trkpt>
      <trkpt lat="46.520911" lon="8.143454">
        <time>1970-01-01T00:00:00+00:00</time>
        <ele>3329.0</ele>
      </trkpt>
      <trkpt lat="46.520881" lon="8.143415">
        <time>1970-01-01T00:00:00+00:00</time>
        <ele>3330.0</ele>
      </trkpt>
      <trkpt lat="46.520926" lon="8.143421">
        <time>1970-01-01T00:00:00+00:00</time>
        <ele>3330.0</ele>
      </trkpt>
      <trkpt lat="46.520906" lon="8.143456">
        <time>1970-01-01T00:00:00+00:00</time>
        <ele>3329.0</ele>
      </trkpt>
      <trkpt lat="46.520911" lon="8.143254">
        <time>1970-01-01T00:00:00+00:00</time>
        <ele>3331.0</ele>
      </trkpt>
      <trkpt lat="46.520839" lon="8.143171">
        <time>1970-01-01T00:00:00+00:00</time>
        <ele>3331.0</ele>
      </trkpt>
      <trkpt lat="46.520861" lon="8.142878">
        <time>1970-01-01T00:00:00+00:00</time>
        <ele>3333.0</ele>
      </trkpt>
      <trkpt lat="46.520743" lon="8.14285">
        <time>1970-01-01T00:00:00+00:00</time>
        <ele>3330.0</ele>
      </trkpt>
      <trkpt lat="46.520732" lon="8.14261">
        <time>1970-01-01T00:00:00+00:00</time>
        <ele>3330.0</ele>
      </trkpt>
      <trkpt lat="46.520517" lon="8.142435">
        <time>1970-01-01T00:00:00+00:00</time>
        <ele>3321.0</ele>
      </trkpt>
      <trkpt lat="46.5205" lon="8.142042">
        <time>1970-01-01T00:00:00+00:00</time>
        <ele>3313.0</ele>
      </trkpt>
      <trkpt lat="46.520288" lon="8.141493">
        <time>1970-01-01T00:00:00+00:00</time>
        <ele>3270.0</ele>
      </trkpt>
      <trkpt lat="46.520068" lon="8.141223">
        <time>1970-01-01T00:00:00+00:00</time>
        <ele>3231.0</ele>
      </trkpt>
      <trkpt lat="46.520065" lon="8.14114">
        <time>1970-01-01T00:00:00+00:00</time>
        <ele>3223.0</ele>
      </trkpt>
      <trkpt lat="46.520039" lon="8.141171">
        <time>1970-01-01T00:00:00+00:00</time>
        <ele>3224.0</ele>
      </trkpt>
      <trkpt lat="46.520093" lon="8.141139">
        <time>1970-01-01T00:00:00+00:00</time>
        <ele>3225.0</ele>
      </trkpt>
      <trkpt lat="46.519981" lon="8.141138">
        <time>1970-01-01T00:00:00+00:00</time>
        <ele>3217.0</ele>
      </trkpt>
      <trkpt lat="46.519955" lon="8.141061">
        <time>1970-01-01T00:00:00+00:00</time>
        <ele>3208.0</ele>
      </trkpt>
      <trkpt lat="46.520016" lon="8.140866">
        <time>1970-01-01T00:00:00+00:00</time>
        <ele>3195.0</ele>
      </trkpt>
      <trkpt lat="46.519807" lon="8.140844">
        <time>1970-01-01T00:00:00+00:00</time>
        <ele>3179.0</ele>
      </trkpt>
      <trkpt lat="46.519757" lon="8.140736">
        <time>1970-01-01T00:00:00+00:00</time>
        <ele>3171.0</ele>
      </trkpt>
      <trkpt lat="46.519932" lon="8.140184">
        <time>1970-01-01T00:00:00+00:00</time>
        <ele>3154.0</ele>
      </trkpt>
      <trkpt lat="46.520233" lon="8.138739">
        <time>1970-01-01T00:00:00+00:00</time>
        <ele>3130.0</ele>
      </trkpt>
      <trkpt lat="46.520187" lon="8.138241">
        <time>1970-01-01T00:00:00+00:00</time>
        <ele>3118.0</ele>
      </trkpt>
      <trkpt lat="46.52033" lon="8.137084">
        <time>1970-01-01T00:00:00+00:00</time>
        <ele>3103.0</ele>
      </trkpt>
      <trkpt lat="46.520248" lon="8.135929">
        <time>1970-01-01T00:00:00+00:00</time>
        <ele>3079.0</ele>
      </trkpt>
      <trkpt lat="46.520293" lon="8.135551">
        <time>1970-01-01T00:00:00+00:00</time>
        <ele>3080.0</ele>
      </trkpt>
      <trkpt lat="46.520638" lon="8.134998">
        <time>1970-01-01T00:00:00+00:00</time>
        <ele>3093.0</ele>
      </trkpt>
      <trkpt lat="46.520752" lon="8.134506">
        <time>1970-01-01T00:00:00+00:00</time>
        <ele>3089.0</ele>
      </trkpt>
      <trkpt lat="46.5211" lon="8.134661">
        <time>1970-01-01T00:00:00+00:00</time>
        <ele>3113.0</ele>
      </trkpt>
      <trkpt lat="46.521466" lon="8.134301">
        <time>1970-01-01T00:00:00+00:00</time>
        <ele>3124.0</ele>
      </trkpt>
      <trkpt lat="46.521722" lon="8.133387">
        <time>1970-01-01T00:00:00+00:00</time>
        <ele>3134.0</ele>
      </trkpt>
      <trkpt lat="46.521942" lon="8.132873">
        <time>1970-01-01T00:00:00+00:00</time>
        <ele>3149.0</ele>
      </trkpt>
      <trkpt lat="46.521981" lon="8.133318">
        <time>1970-01-01T00:00:00+00:00</time>
        <ele>3152.0</ele>
      </trkpt>
      <trkpt lat="46.52213" lon="8.133719">
        <time>1970-01-01T00:00:00+00:00</time>
        <ele>3160.0</ele>
      </trkpt>
      <trkpt lat="46.522262" lon="8.13384">
        <time>1970-01-01T00:00:00+00:00</time>
        <ele>3167.0</ele>
      </trkpt>
      <trkpt lat="46.523054" lon="8.134224">
        <time>1970-01-01T00:00:00+00:00</time>
        <ele>3206.0</ele>
      </trkpt>
      <trkpt lat="46.523588" lon="8.133668">
        <time>1970-01-01T00:00:00+00:00</time>
        <ele>3223.0</ele>
      </trkpt>
      <trkpt lat="46.524116" lon="8.132934">
        <time>1970-01-01T00:00:00+00:00</time>
        <ele>3242.0</ele>
      </trkpt>
      <trkpt lat="46.524547" lon="8.131939">
        <time>1970-01-01T00:00:00+00:00</time>
        <ele>3264.0</ele>
      </trkpt>
      <trkpt lat="46.525494" lon="8.129461">
        <time>1970-01-01T00:00:00+00:00</time>
        <ele>3315.0</ele>
      </trkpt>
      <trkpt lat="46.525956" lon="8.128427">
        <time>1970-01-01T00:00:00+00:00</time>
        <ele>3330.0</ele>
      </trkpt>
      <trkpt lat="46.526318" lon="8.127411">
        <time>1970-01-01T00:00:00+00:00</time>
        <ele>3342.0</ele>
      </trkpt>
      <trkpt lat="46.526722" lon="8.126524">
        <time>1970-01-01T00:00:00+00:00</time>
        <ele>3359.0</ele>
      </trkpt>
      <trkpt lat="46.527076" lon="8.125933">
        <time>1970-01-01T00:00:00+00:00</time>
        <ele>3377.0</ele>
      </trkpt>
      <trkpt lat="46.527161" lon="8.125633">
        <time>1970-01-01T00:00:00+00:00</time>
        <ele>3379.0</ele>
      </trkpt>
      <trkpt lat="46.527405" lon="8.125159">
        <time>1970-01-01T00:00:00+00:00</time>
        <ele>3392.0</ele>
      </trkpt>
      <trkpt lat="46.528327" lon="8.123773">
        <time>1970-01-01T00:00:00+00:00</time>
        <ele>3425.0</ele>
      </trkpt>
      <trkpt lat="46.528527" lon="8.122866">
        <time>1970-01-01T00:00:00+00:00</time>
        <ele>3422.0</ele>
      </trkpt>
      <trkpt lat="46.528522" lon="8.122552">
        <time>1970-01-01T00:00:00+00:00</time>
        <ele>3421.0</ele>
      </trkpt>
      <trkpt lat="46.528399" lon="8.122003">
        <time>1970-01-01T00:00:00+00:00</time>
        <ele>3419.0</ele>
      </trkpt>
      <trkpt lat="46.528347" lon="8.121481">
        <time>1970-01-01T00:00:00+00:00</time>
        <ele>3429.0</ele>
      </trkpt>
      <trkpt lat="46.528348" lon="8.120793">
        <time>1970-01-01T00:00:00+00:00</time>
        <ele>3442.0</ele>
      </trkpt>
      <trkpt lat="46.528416" lon="8.120398">
        <time>1970-01-01T00:00:00+00:00</time>
        <ele>3451.0</ele>
      </trkpt>
      <trkpt lat="46.529494" lon="8.118875">
        <time>1970-01-01T00:00:00+00:00</time>
        <ele>3503.0</ele>
      </trkpt>
      <trkpt lat="46.52998" lon="8.118324">
        <time>1970-01-01T00:00:00+00:00</time>
        <ele>3517.0</ele>
      </trkpt>
      <trkpt lat="46.530555" lon="8.117822">
        <time>1970-01-01T00:00:00+00:00</time>
        <ele>3530.0</ele>
      </trkpt>
      <trkpt lat="46.531072" lon="8.118193">
        <time>1970-01-01T00:00:00+00:00</time>
        <ele>3544.0</ele>
      </trkpt>
      <trkpt lat="46.531317" lon="8.118289">
        <time>1970-01-01T00:00:00+00:00</time>
        <ele>3551.0</ele>
      </trkpt>
      <trkpt lat="46.531359" lon="8.117709">
        <time>1970-01-01T00:00:00+00:00</time>
        <ele>3554.0</ele>
      </trkpt>
      <trkpt lat="46.531301" lon="8.117475">
        <time>1970-01-01T00:00:00+00:00</time>
        <ele>3554.0</ele>
      </trkpt>
      <trkpt lat="46.531338" lon="8.117418">
        <time>1970-01-01T00:00:00+00:00</time>
        <ele>3557.0</ele>
      </trkpt>
      <trkpt lat="46.531304" lon="8.117451">
        <time>1970-01-01T00:00:00+00:00</time>
        <ele>3554.0</ele>
      </trkpt>
      <trkpt lat="46.531337" lon="8.11744">
        <time>1970-01-01T00:00:00+00:00</time>
        <ele>3556.0</ele>
      </trkpt>
      <trkpt lat="46.531285" lon="8.117334">
        <time>1970-01-01T00:00:00+00:00</time>
        <ele>3555.0</ele>
      </trkpt>
      <trkpt lat="46.531396" lon="8.117202">
        <time>1970-01-01T00:00:00+00:00</time>
        <ele>3563.0</ele>
      </trkpt>
      <trkpt lat="46.531399" lon="8.117121">
        <time>1970-01-01T00:00:00+00:00</time>
        <ele>3566.0</ele>
      </trkpt>
      <trkpt lat="46.531444" lon="8.117147">
        <time>1970-01-01T00:00:00+00:00</time>
        <ele>3567.0</ele>
      </trkpt>
      <trkpt lat="46.531427" lon="8.116887">
        <time>1970-01-01T00:00:00+00:00</time>
        <ele>3573.0</ele>
      </trkpt>
      <trkpt lat="46.531623" lon="8.116938">
        <time>1970-01-01T00:00:00+00:00</time>
        <ele>3584.0</ele>
      </trkpt>
      <trkpt lat="46.531506" lon="8.116773">
        <time>1970-01-01T00:00:00+00:00</time>
        <ele>3580.0</ele>
      </trkpt>
      <trkpt lat="46.53204" lon="8.11751">
        <time>1970-01-01T00:00:00+00:00</time>
        <ele>3592.0</ele>
      </trkpt>
      <trkpt lat="46.532696" lon="8.117705">
        <time>1970-01-01T00:00:00+00:00</time>
        <ele>3632.0</ele>
      </trkpt>
      <trkpt lat="46.533677" lon="8.117568">
        <time>1970-01-01T00:00:00+00:00</time>
        <ele>3673.0</ele>
      </trkpt>
      <trkpt lat="46.534474" lon="8.117248">
        <time>1970-01-01T00:00:00+00:00</time>
        <ele>3686.0</ele>
      </trkpt>
      <trkpt lat="46.534432" lon="8.117855">
        <time>1970-01-01T00:00:00+00:00</time>
        <ele>3706.0</ele>
      </trkpt>
      <trkpt lat="46.53431" lon="8.118225">
        <time>1970-01-01T00:00:00+00:00</time>
        <ele>3720.0</ele>
      </trkpt>
      <trkpt lat="46.534153" lon="8.118533">
        <time>1970-01-01T00:00:00+00:00</time>
        <ele>3737.0</ele>
      </trkpt>
      <trkpt lat="46.533706" lon="8.119004">
        <time>1970-01-01T00:00:00+00:00</time>
        <ele>3739.0</ele>
      </trkpt>
      <trkpt lat="46.534612" lon="8.119121">
        <time>1970-01-01T00:00:00+00:00</time>
        <ele>3767.0</ele>
      </trkpt>
      <trkpt lat="46.534264" lon="8.119605">
        <time>1970-01-01T00:00:00+00:00</time>
        <ele>3777.0</ele>
      </trkpt>
      <trkpt lat="46.534557" lon="8.119695">
        <time>1970-01-01T00:00:00+00:00</time>
        <ele>3787.0</ele>
      </trkpt>
      <trkpt lat="46.534964" lon="8.119648">
        <time>1970-01-01T00:00:00+00:00</time>
        <ele>3791.0</ele>
      </trkpt>
      <trkpt lat="46.534921" lon="8.119792">
        <time>1970-01-01T00:00:00+00:00</time>
        <ele>3794.0</ele>
      </trkpt>
      <trkpt lat="46.534591" lon="8.120203">
        <time>1970-01-01T00:00:00+00:00</time>
        <ele>3798.0</ele>
      </trkpt>
      <trkpt lat="46.534857" lon="8.120257">
        <time>1970-01-01T00:00:00+00:00</time>
        <ele>3810.0</ele>
      </trkpt>
      <trkpt lat="46.535557" lon="8.120043">
        <time>1970-01-01T00:00:00+00:00</time>
        <ele>3822.0</ele>
      </trkpt>
      <trkpt lat="46.535508" lon="8.120301">
        <time>1970-01-01T00:00:00+00:00</time>
        <ele>3831.0</ele>
      </trkpt>
      <trkpt lat="46.535734" lon="8.120157">
        <time>1970-01-01T00:00:00+00:00</time>
        <ele>3834.0</ele>
      </trkpt>
      <trkpt lat="46.535641" lon="8.120681">
        <time>1970-01-01T00:00:00+00:00</time>
        <ele>3852.0</ele>
      </trkpt>
      <trkpt lat="46.53612" lon="8.120309">
        <time>1970-01-01T00:00:00+00:00</time>
        <ele>3863.0</ele>
      </trkpt>
      <trkpt lat="46.536115" lon="8.12067">
        <time>1970-01-01T00:00:00+00:00</time>
        <ele>3875.0</ele>
      </trkpt>
      <trkpt lat="46.536076" lon="8.120693">
        <time>1970-01-01T00:00:00+00:00</time>
        <ele>3874.0</ele>
      </trkpt>
      <trkpt lat="46.536315" lon="8.120419">
        <time>1970-01-01T00:00:00+00:00</time>
        <ele>3872.0</ele>
      </trkpt>
      <trkpt lat="46.536603" lon="8.120309">
        <time>1970-01-01T00:00:00+00:00</time>
        <ele>3881.0</ele>
      </trkpt>
      <trkpt lat="46.536998" lon="8.120802">
        <time>1970-01-01T00:00:00+00:00</time>
        <ele>3909.0</ele>
      </trkpt>
      <trkpt lat="46.537002" lon="8.121037">
        <time>1970-01-01T00:00:00+00:00</time>
        <ele>3919.0</ele>
      </trkpt>
      <trkpt lat="46.536862" lon="8.121406">
        <time>1970-01-01T00:00:00+00:00</time>
        <ele>3929.0</ele>
      </trkpt>
      <trkpt lat="46.537487" lon="8.121044">
        <time>1970-01-01T00:00:00+00:00</time>
        <ele>3938.0</ele>
      </trkpt>
      <trkpt lat="46.537489" lon="8.121273">
        <time>1970-01-01T00:00:00+00:00</time>
        <ele>3948.0</ele>
      </trkpt>
      <trkpt lat="46.537367" lon="8.121603">
        <time>1970-01-01T00:00:00+00:00</time>
        <ele>3964.0</ele>
      </trkpt>
      <trkpt lat="46.537623" lon="8.121469">
        <time>1970-01-01T00:00:00+00:00</time>
        <ele>3963.0</ele>
      </trkpt>
      <trkpt lat="46.538155" lon="8.120995">
        <time>1970-01-01T00:00:00+00:00</time>
        <ele>3963.0</ele>
      </trkpt>
      <trkpt lat="46.538188" lon="8.121574">
        <time>1970-01-01T00:00:00+00:00</time>
        <ele>3983.0</ele>
      </trkpt>
      <trkpt lat="46.538138" lon="8.121639">
        <time>1970-01-01T00:00:00+00:00</time>
        <ele>3985.0</ele>
      </trkpt>
      <trkpt lat="46.538382" lon="8.121557">
        <time>1970-01-01T00:00:00+00:00</time>
        <ele>3989.0</ele>
      </trkpt>
      <trkpt lat="46.538391" lon="8.121734">
        <time>1970-01-01T00:00:00+00:00</time>
        <ele>3998.0</ele>
      </trkpt>
      <trkpt lat="46.538326" lon="8.121909">
        <time>1970-01-01T00:00:00+00:00</time>
        <ele>4003.0</ele>
      </trkpt>
      <trkpt lat="46.539456" lon="8.121884">
        <time>1970-01-01T00:00:00+00:00</time>
        <ele>4036.0</ele>
      </trkpt>
      <trkpt lat="46.539142" lon="8.12291">
        <time>1970-01-01T00:00:00+00:00</time>
        <ele>4054.0</ele>
      </trkpt>
      <trkpt lat="46.539071" lon="8.122994">
        <time>1970-01-01T00:00:00+00:00</time>
        <ele>4056.0</ele>
      </trkpt>
      <trkpt lat="46.539782" lon="8.122873">
        <time>1970-01-01T00:00:00+00:00</time>
        <ele>4054.0</ele>
      </trkpt>
      <trkpt lat="46.539831" lon="8.122929">
        <time>1970-01-01T00:00:00+00:00</time>
        <ele>4053.0</ele>
      </trkpt>
      <trkpt lat="46.539768" lon="8.1232">
        <time>1970-01-01T00:00:00+00:00</time>
        <ele>4051.0</ele>
      </trkpt>
      <trkpt lat="46.539585" lon="8.123514">
        <time>1970-01-01T00:00:00+00:00</time>
        <ele>4042.0</ele>
      </trkpt>
      <trkpt lat="46.539633" lon="8.123495">
        <time>1970-01-01T00:00:00+00:00</time>
        <ele>4042.0</ele>
      </trkpt>
      <trkpt lat="46.53964" lon="8.123556">
        <time>1970-01-01T00:00:00+00:00</time>
        <ele>4039.0</ele>
      </trkpt>
      <trkpt lat="46.539561" lon="8.1236">
        <time>1970-01-01T00:00:00+00:00</time>
        <ele>4040.0</ele>
      </trkpt>
      <trkpt lat="46.539629" lon="8.12351">
        <time>1970-01-01T00:00:00+00:00</time>
        <ele>4041.0</ele>
      </trkpt>
      <trkpt lat="46.539424" lon="8.1235">
        <time>1970-01-01T00:00:00+00:00</time>
        <ele>4048.0</ele>
      </trkpt>
      <trkpt lat="46.539475" lon="8.123624">
        <time>1970-01-01T00:00:00+00:00</time>
        <ele>4042.0</ele>
      </trkpt>
      <trkpt lat="46.539307" lon="8.123739">
        <time>1970-01-01T00:00:00+00:00</time>
        <ele>4045.0</ele>
      </trkpt>
      <trkpt lat="46.538955" lon="8.1243">
        <time>1970-01-01T00:00:00+00:00</time>
        <ele>4037.0</ele>
      </trkpt>
      <trkpt lat="46.538793" lon="8.124896">
        <time>1970-01-01T00:00:00+00:00</time>
        <ele>3969.0</ele>
      </trkpt>
      <trkpt lat="46.538595" lon="8.124993">
        <time>1970-01-01T00:00:00+00:00</time>
        <ele>3965.0</ele>
      </trkpt>
      <trkpt lat="46.538503" lon="8.125181">
        <time>1970-01-01T00:00:00+00:00</time>
        <ele>3950.0</ele>
      </trkpt>
      <trkpt lat="46.538373" lon="8.125316">
        <time>1970-01-01T00:00:00+00:00</time>
        <ele>3947.0</ele>
      </trkpt>
      <trkpt lat="46.538308" lon="8.125296">
        <time>1970-01-01T00:00:00+00:00</time>
        <ele>3953.0</ele>
      </trkpt>
      <trkpt lat="46.538132" lon="8.125538">
        <time>1970-01-01T00:00:00+00:00</time>
        <ele>3946.0</ele>
      </trkpt>
      <trkpt lat="46.537987" lon="8.125621">
        <time>1970-01-01T00:00:00+00:00</time>
        <ele>3949.0</ele>
      </trkpt>
      <trkpt lat="46.537968" lon="8.125717">
        <time>1970-01-01T00:00:00+00:00</time>
        <ele>3944.0</ele>
      </trkpt>
      <trkpt lat="46.537915" lon="8.125676">
        <time>1970-01-01T00:00:00+00:00</time>
        <ele>3949.0</ele>
      </trkpt>
      <trkpt lat="46.537753" lon="8.125759">
        <time>1970-01-01T00:00:00+00:00</time>
        <ele>3953.0</ele>
      </trkpt>
      <trkpt lat="46.53767" lon="8.125929">
        <time>1970-01-01T00:00:00+00:00</time>
        <ele>3950.0</ele>
      </trkpt>
      <trkpt lat="46.53731" lon="8.126131">
        <time>1970-01-01T00:00:00+00:00</time>
        <ele>3966.0</ele>
      </trkpt>
      <trkpt lat="46.537573" lon="8.125969">
        <time>1970-01-01T00:00:00+00:00</time>
        <ele>3955.0</ele>
      </trkpt>
      <trkpt lat="46.537756" lon="8.125746">
        <time>1970-01-01T00:00:00+00:00</time>
        <ele>3953.0</ele>
      </trkpt>
      <trkpt lat="46.537889" lon="8.125749">
        <time>1970-01-01T00:00:00+00:00</time>
        <ele>3946.0</ele>
      </trkpt>
      <trkpt lat="46.537884" lon="8.125671">
        <time>1970-01-01T00:00:00+00:00</time>
        <ele>3951.0</ele>
      </trkpt>
      <trkpt lat="46.537956" lon="8.125649">
        <time>1970-01-01T00:00:00+00:00</time>
        <ele>3949.0</ele>
      </trkpt>
      <trkpt lat="46.537976" lon="8.125558">
        <time>1970-01-01T00:00:00+00:00</time>
        <ele>3954.0</ele>
      </trkpt>
      <trkpt lat="46.538213" lon="8.125333">
        <time>1970-01-01T00:00:00+00:00</time>
        <ele>3957.0</ele>
      </trkpt>
      <trkpt lat="46.53829" lon="8.125354">
        <time>1970-01-01T00:00:00+00:00</time>
        <ele>3950.0</ele>
      </trkpt>
      <trkpt lat="46.538393" lon="8.125273">
        <time>1970-01-01T00:00:00+00:00</time>
        <ele>3949.0</ele>
      </trkpt>
      <trkpt lat="46.538565" lon="8.125088">
        <time>1970-01-01T00:00:00+00:00</time>
        <ele>3955.0</ele>
      </trkpt>
      <trkpt lat="46.538541" lon="8.125026">
        <time>1970-01-01T00:00:00+00:00</time>
        <ele>3964.0</ele>
      </trkpt>
      <trkpt lat="46.538612" lon="8.124948">
        <time>1970-01-01T00:00:00+00:00</time>
        <ele>3971.0</ele>
      </trkpt>
      <trkpt lat="46.538738" lon="8.124906">
        <time>1970-01-01T00:00:00+00:00</time>
        <ele>3970.0</ele>
      </trkpt>
      <trkpt lat="46.538918" lon="8.124307">
        <time>1970-01-01T00:00:00+00:00</time>
        <ele>4038.0</ele>
      </trkpt>
      <trkpt lat="46.539284" lon="8.123712">
        <time>1970-01-01T00:00:00+00:00</time>
        <ele>4046.0</ele>
      </trkpt>
      <trkpt lat="46.539463" lon="8.123632">
        <time>1970-01-01T00:00:00+00:00</time>
        <ele>4042.0</ele>
      </trkpt>
      <trkpt lat="46.539392" lon="8.123465">
        <time>1970-01-01T00:00:00+00:00</time>
        <ele>4050.0</ele>
      </trkpt>
      <trkpt lat="46.539591" lon="8.1235">
        <time>1970-01-01T00:00:00+00:00</time>
        <ele>4043.0</ele>
      </trkpt>
      <trkpt lat="46.539651" lon="8.123577">
        <time>1970-01-01T00:00:00+00:00</time>
        <ele>4037.0</ele>
      </trkpt>
      <trkpt lat="46.539611" lon="8.123617">
        <time>1970-01-01T00:00:00+00:00</time>
        <ele>4037.0</ele>
      </trkpt>
      <trkpt lat="46.539661" lon="8.123585">
        <time>1970-01-01T00:00:00+00:00</time>
        <ele>4037.0</ele>
      </trkpt>
      <trkpt lat="46.539584" lon="8.123555">
        <time>1970-01-01T00:00:00+00:00</time>
        <ele>4041.0</ele>
      </trkpt>
      <trkpt lat="46.539656" lon="8.123555">
        <time>1970-01-01T00:00:00+00:00</time>
        <ele>4038.0</ele>
      </trkpt>
      <trkpt lat="46.539637" lon="8.123485">
        <time>1970-01-01T00:00:00+00:00</time>
        <ele>4042.0</ele>
      </trkpt>
      <trkpt lat="46.539762" lon="8.123187">
        <time>1970-01-01T00:00:00+00:00</time>
        <ele>4051.0</ele>
      </trkpt>
      <trkpt lat="46.539726" lon="8.123104">
        <time>1970-01-01T00:00:00+00:00</time>
        <ele>4053.0</ele>
      </trkpt>
      <trkpt lat="46.539667" lon="8.12316">
        <time>1970-01-01T00:00:00+00:00</time>
        <ele>4053.0</ele>
      </trkpt>
      <trkpt lat="46.53962" lon="8.123002">
        <time>1970-01-01T00:00:00+00:00</time>
        <ele>4054.0</ele>
      </trkpt>
      <trkpt lat="46.539475" lon="8.122981">
        <time>1970-01-01T00:00:00+00:00</time>
        <ele>4055.0</ele>
      </trkpt>
      <trkpt lat="46.53936" lon="8.122879">
        <time>1970-01-01T00:00:00+00:00</time>
        <ele>4054.0</ele>
      </trkpt>
      <trkpt lat="46.539391" lon="8.12277">
        <time>1970-01-01T00:00:00+00:00</time>
        <ele>4053.0</ele>
      </trkpt>
      <trkpt lat="46.539071" lon="8.122749">
        <time>1970-01-01T00:00:00+00:00</time>
        <ele>4050.0</ele>
      </trkpt>
      <trkpt lat="46.539015" lon="8.122664">
        <time>1970-01-01T00:00:00+00:00</time>
        <ele>4047.0</ele>
      </trkpt>
      <trkpt lat="46.539024" lon="8.122564">
        <time>1970-01-01T00:00:00+00:00</time>
        <ele>4044.0</ele>
      </trkpt>
      <trkpt lat="46.538888" lon="8.12238">
        <time>1970-01-01T00:00:00+00:00</time>
        <ele>4035.0</ele>
      </trkpt>
      <trkpt lat="46.538931" lon="8.122271">
        <time>1970-01-01T00:00:00+00:00</time>
        <ele>4033.0</ele>
      </trkpt>
      <trkpt lat="46.538836" lon="8.122252">
        <time>1970-01-01T00:00:00+00:00</time>
        <ele>4030.0</ele>
      </trkpt>
      <trkpt lat="46.538783" lon="8.122117">
        <time>1970-01-01T00:00:00+00:00</time>
        <ele>4025.0</ele>
      </trkpt>
      <trkpt lat="46.538856" lon="8.121962">
        <time>1970-01-01T00:00:00+00:00</time>
        <ele>4021.0</ele>
      </trkpt>
      <trkpt lat="46.538684" lon="8.12198">
        <time>1970-01-01T00:00:00+00:00</time>
        <ele>4017.0</ele>
      </trkpt>
      <trkpt lat="46.538392" lon="8.121767">
        <time>1970-01-01T00:00:00+00:00</time>
        <ele>3999.0</ele>
      </trkpt>
      <trkpt lat="46.538013" lon="8.121947">
        <time>1970-01-01T00:00:00+00:00</time>
        <ele>3998.0</ele>
      </trkpt>
      <trkpt lat="46.537864" lon="8.121849">
        <time>1970-01-01T00:00:00+00:00</time>
        <ele>3992.0</ele>
      </trkpt>
      <trkpt lat="46.537939" lon="8.121538">
        <time>1970-01-01T00:00:00+00:00</time>
        <ele>3974.0</ele>
      </trkpt>
      <trkpt lat="46.537761" lon="8.121604">
        <time>1970-01-01T00:00:00+00:00</time>
        <ele>3975.0</ele>
      </trkpt>
      <trkpt lat="46.53764" lon="8.121455">
        <time>1970-01-01T00:00:00+00:00</time>
        <ele>3963.0</ele>
      </trkpt>
      <trkpt lat="46.537641" lon="8.121376">
        <time>1970-01-01T00:00:00+00:00</time>
        <ele>3959.0</ele>
      </trkpt>
      <trkpt lat="46.537497" lon="8.121227">
        <time>1970-01-01T00:00:00+00:00</time>
        <ele>3946.0</ele>
      </trkpt>
      <trkpt lat="46.537389" lon="8.121219">
        <time>1970-01-01T00:00:00+00:00</time>
        <ele>3942.0</ele>
      </trkpt>
      <trkpt lat="46.537353" lon="8.121077">
        <time>1970-01-01T00:00:00+00:00</time>
        <ele>3935.0</ele>
      </trkpt>
      <trkpt lat="46.537097" lon="8.12084">
        <time>1970-01-01T00:00:00+00:00</time>
        <ele>3915.0</ele>
      </trkpt>
      <trkpt lat="46.537055" lon="8.120844">
        <time>1970-01-01T00:00:00+00:00</time>
        <ele>3914.0</ele>
      </trkpt>
      <trkpt lat="46.537186" lon="8.121005">
        <time>1970-01-01T00:00:00+00:00</time>
        <ele>3927.0</ele>
      </trkpt>
      <trkpt lat="46.536953" lon="8.120749">
        <time>1970-01-01T00:00:00+00:00</time>
        <ele>3905.0</ele>
      </trkpt>
      <trkpt lat="46.536597" lon="8.120635">
        <time>1970-01-01T00:00:00+00:00</time>
        <ele>3889.0</ele>
      </trkpt>
      <trkpt lat="46.536476" lon="8.120668">
        <time>1970-01-01T00:00:00+00:00</time>
        <ele>3884.0</ele>
      </trkpt>
      <trkpt lat="46.536441" lon="8.120573">
        <time>1970-01-01T00:00:00+00:00</time>
        <ele>3881.0</ele>
      </trkpt>
      <trkpt lat="46.536324" lon="8.120648">
        <time>1970-01-01T00:00:00+00:00</time>
        <ele>3879.0</ele>
      </trkpt>
      <trkpt lat="46.536163" lon="8.120438">
        <time>1970-01-01T00:00:00+00:00</time>
        <ele>3869.0</ele>
      </trkpt>
      <trkpt lat="46.536013" lon="8.120546">
        <time>1970-01-01T00:00:00+00:00</time>
        <ele>3867.0</ele>
      </trkpt>
      <trkpt lat="46.536022" lon="8.120276">
        <time>1970-01-01T00:00:00+00:00</time>
        <ele>3857.0</ele>
      </trkpt>
      <trkpt lat="46.535896" lon="8.120215">
        <time>1970-01-01T00:00:00+00:00</time>
        <ele>3847.0</ele>
      </trkpt>
      <trkpt lat="46.535905" lon="8.120149">
        <time>1970-01-01T00:00:00+00:00</time>
        <ele>3844.0</ele>
      </trkpt>
      <trkpt lat="46.535775" lon="8.119962">
        <time>1970-01-01T00:00:00+00:00</time>
        <ele>3827.0</ele>
      </trkpt>
      <trkpt lat="46.535835" lon="8.119683">
        <time>1970-01-01T00:00:00+00:00</time>
        <ele>3823.0</ele>
      </trkpt>
      <trkpt lat="46.535647" lon="8.119745">
        <time>1970-01-01T00:00:00+00:00</time>
        <ele>3815.0</ele>
      </trkpt>
      <trkpt lat="46.535544" lon="8.119631">
        <time>1970-01-01T00:00:00+00:00</time>
        <ele>3809.0</ele>
      </trkpt>
      <trkpt lat="46.535423" lon="8.119659">
        <time>1970-01-01T00:00:00+00:00</time>
        <ele>3803.0</ele>
      </trkpt>
      <trkpt lat="46.53556" lon="8.119646">
        <time>1970-01-01T00:00:00+00:00</time>
        <ele>3810.0</ele>
      </trkpt>
      <trkpt lat="46.535435" lon="8.119645">
        <time>1970-01-01T00:00:00+00:00</time>
        <ele>3803.0</ele>
      </trkpt>
      <trkpt lat="46.535434" lon="8.119541">
        <time>1970-01-01T00:00:00+00:00</time>
        <ele>3800.0</ele>
      </trkpt>
      <trkpt lat="46.535175" lon="8.119412">
        <time>1970-01-01T00:00:00+00:00</time>
        <ele>3785.0</ele>
      </trkpt>
      <trkpt lat="46.534968" lon="8.119403">
        <time>1970-01-01T00:00:00+00:00</time>
        <ele>3782.0</ele>
      </trkpt>
      <trkpt lat="46.535032" lon="8.118853">
        <time>1970-01-01T00:00:00+00:00</time>
        <ele>3765.0</ele>
      </trkpt>
      <trkpt lat="46.534923" lon="8.118706">
        <time>1970-01-01T00:00:00+00:00</time>
        <ele>3758.0</ele>
      </trkpt>
      <trkpt lat="46.53493" lon="8.118617">
        <time>1970-01-01T00:00:00+00:00</time>
        <ele>3754.0</ele>
      </trkpt>
      <trkpt lat="46.534787" lon="8.118318">
        <time>1970-01-01T00:00:00+00:00</time>
        <ele>3735.0</ele>
      </trkpt>
      <trkpt lat="46.534818" lon="8.11815">
        <time>1970-01-01T00:00:00+00:00</time>
        <ele>3729.0</ele>
      </trkpt>
      <trkpt lat="46.53457" lon="8.117962">
        <time>1970-01-01T00:00:00+00:00</time>
        <ele>3713.0</ele>
      </trkpt>
      <trkpt lat="46.534563" lon="8.117807">
        <time>1970-01-01T00:00:00+00:00</time>
        <ele>3707.0</ele>
      </trkpt>
      <trkpt lat="46.534498" lon="8.117748">
        <time>1970-01-01T00:00:00+00:00</time>
        <ele>3703.0</ele>
      </trkpt>
      <trkpt lat="46.534559" lon="8.117742">
        <time>1970-01-01T00:00:00+00:00</time>
        <ele>3704.0</ele>
      </trkpt>
      <trkpt lat="46.534487" lon="8.117637">
        <time>1970-01-01T00:00:00+00:00</time>
        <ele>3699.0</ele>
      </trkpt>
      <trkpt lat="46.53448" lon="8.117509">
        <time>1970-01-01T00:00:00+00:00</time>
        <ele>3694.0</ele>
      </trkpt>
      <trkpt lat="46.534354" lon="8.117506">
        <time>1970-01-01T00:00:00+00:00</time>
        <ele>3691.0</ele>
      </trkpt>
      <trkpt lat="46.534151" lon="8.117681">
        <time>1970-01-01T00:00:00+00:00</time>
        <ele>3691.0</ele>
      </trkpt>
      <trkpt lat="46.53399" lon="8.117438">
        <time>1970-01-01T00:00:00+00:00</time>
        <ele>3675.0</ele>
      </trkpt>
      <trkpt lat="46.5335" lon="8.117613">
        <time>1970-01-01T00:00:00+00:00</time>
        <ele>3672.0</ele>
      </trkpt>
      <trkpt lat="46.532461" lon="8.117677">
        <time>1970-01-01T00:00:00+00:00</time>
        <ele>3615.0</ele>
      </trkpt>
      <trkpt lat="46.531932" lon="8.11741">
        <time>1970-01-01T00:00:00+00:00</time>
        <ele>3591.0</ele>
      </trkpt>
      <trkpt lat="46.531672" lon="8.116943">
        <time>1970-01-01T00:00:00+00:00</time>
        <ele>3587.0</ele>
      </trkpt>
      <trkpt lat="46.53159" lon="8.117082">
        <time>1970-01-01T00:00:00+00:00</time>
        <ele>3579.0</ele>
      </trkpt>
      <trkpt lat="46.531469" lon="8.117063">
        <time>1970-01-01T00:00:00+00:00</time>
        <ele>3571.0</ele>
      </trkpt>
      <trkpt lat="46.531451" lon="8.117217">
        <time>1970-01-01T00:00:00+00:00</time>
        <ele>3566.0</ele>
      </trkpt>
      <trkpt lat="46.531366" lon="8.117159">
        <time>1970-01-01T00:00:00+00:00</time>
        <ele>3563.0</ele>
      </trkpt>
      <trkpt lat="46.531265" lon="8.117325">
        <time>1970-01-01T00:00:00+00:00</time>
        <ele>3554.0</ele>
      </trkpt>
      <trkpt lat="46.531354" lon="8.117947">
        <time>1970-01-01T00:00:00+00:00</time>
        <ele>3552.0</ele>
      </trkpt>
      <trkpt lat="46.531362" lon="8.118543">
        <time>1970-01-01T00:00:00+00:00</time>
        <ele>3553.0</ele>
      </trkpt>
      <trkpt lat="46.530931" lon="8.118711">
        <time>1970-01-01T00:00:00+00:00</time>
        <ele>3546.0</ele>
      </trkpt>
      <trkpt lat="46.530802" lon="8.118669">
        <time>1970-01-01T00:00:00+00:00</time>
        <ele>3545.0</ele>
      </trkpt>
      <trkpt lat="46.530815" lon="8.118713">
        <time>1970-01-01T00:00:00+00:00</time>
        <ele>3545.0</ele>
      </trkpt>
      <trkpt lat="46.530357" lon="8.118807">
        <time>1970-01-01T00:00:00+00:00</time>
        <ele>3535.0</ele>
      </trkpt>
      <trkpt lat="46.53015" lon="8.11899">
        <time>1970-01-01T00:00:00+00:00</time>
        <ele>3531.0</ele>
      </trkpt>
      <trkpt lat="46.529878" lon="8.118849">
        <time>1970-01-01T00:00:00+00:00</time>
        <ele>3520.0</ele>
      </trkpt>
      <trkpt lat="46.52962" lon="8.119276">
        <time>1970-01-01T00:00:00+00:00</time>
        <ele>3511.0</ele>
      </trkpt>
      <trkpt lat="46.529295" lon="8.120223">
        <time>1970-01-01T00:00:00+00:00</time>
        <ele>3492.0</ele>
      </trkpt>
      <trkpt lat="46.52918" lon="8.120341">
        <time>1970-01-01T00:00:00+00:00</time>
        <ele>3486.0</ele>
      </trkpt>
      <trkpt lat="46.528995" lon="8.120025">
        <time>1970-01-01T00:00:00+00:00</time>
        <ele>3480.0</ele>
      </trkpt>
      <trkpt lat="46.528898" lon="8.120102">
        <time>1970-01-01T00:00:00+00:00</time>
        <ele>3476.0</ele>
      </trkpt>
      <trkpt lat="46.528759" lon="8.120548">
        <time>1970-01-01T00:00:00+00:00</time>
        <ele>3467.0</ele>
      </trkpt>
      <trkpt lat="46.528587" lon="8.120748">
        <time>1970-01-01T00:00:00+00:00</time>
        <ele>3456.0</ele>
      </trkpt>
      <trkpt lat="46.528481" lon="8.12067">
        <time>1970-01-01T00:00:00+00:00</time>
        <ele>3451.0</ele>
      </trkpt>
      <trkpt lat="46.528407" lon="8.120755">
        <time>1970-01-01T00:00:00+00:00</time>
        <ele>3446.0</ele>
      </trkpt>
      <trkpt lat="46.528417" lon="8.121308">
        <time>1970-01-01T00:00:00+00:00</time>
        <ele>3437.0</ele>
      </trkpt>
      <trkpt lat="46.528652" lon="8.122255">
        <time>1970-01-01T00:00:00+00:00</time>
        <ele>3430.0</ele>
      </trkpt>
      <trkpt lat="46.528634" lon="8.122647">
        <time>1970-01-01T00:00:00+00:00</time>
        <ele>3428.0</ele>
      </trkpt>
      <trkpt lat="46.52833" lon="8.123278">
        <time>1970-01-01T00:00:00+00:00</time>
        <ele>3411.0</ele>
      </trkpt>
      <trkpt lat="46.528412" lon="8.123342">
        <time>1970-01-01T00:00:00+00:00</time>
        <ele>3418.0</ele>
      </trkpt>
      <trkpt lat="46.528301" lon="8.123789">
        <time>1970-01-01T00:00:00+00:00</time>
        <ele>3424.0</ele>
      </trkpt>
      <trkpt lat="46.528174" lon="8.124034">
        <time>1970-01-01T00:00:00+00:00</time>
        <ele>3424.0</ele>
      </trkpt>
      <trkpt lat="46.527838" lon="8.124434">
        <time>1970-01-01T00:00:00+00:00</time>
        <ele>3411.0</ele>
      </trkpt>
      <trkpt lat="46.527411" lon="8.125301">
        <time>1970-01-01T00:00:00+00:00</time>
        <ele>3393.0</ele>
      </trkpt>
      <trkpt lat="46.527191" lon="8.126035">
        <time>1970-01-01T00:00:00+00:00</time>
        <ele>3382.0</ele>
      </trkpt>
      <trkpt lat="46.526745" lon="8.127201">
        <time>1970-01-01T00:00:00+00:00</time>
        <ele>3362.0</ele>
      </trkpt>
      <trkpt lat="46.526334" lon="8.128947">
        <time>1970-01-01T00:00:00+00:00</time>
        <ele>3350.0</ele>
      </trkpt>
      <trkpt lat="46.526268" lon="8.129092">
        <time>1970-01-01T00:00:00+00:00</time>
        <ele>3348.0</ele>
      </trkpt>
      <trkpt lat="46.526175" lon="8.129073">
        <time>1970-01-01T00:00:00+00:00</time>
        <ele>3343.0</ele>
      </trkpt>
      <trkpt lat="46.526156" lon="8.128771">
        <time>1970-01-01T00:00:00+00:00</time>
        <ele>3340.0</ele>
      </trkpt>
      <trkpt lat="46.526109" lon="8.128793">
        <time>1970-01-01T00:00:00+00:00</time>
        <ele>3338.0</ele>
      </trkpt>
      <trkpt lat="46.525748" lon="8.129625">
        <time>1970-01-01T00:00:00+00:00</time>
        <ele>3325.0</ele>
      </trkpt>
      <trkpt lat="46.525282" lon="8.131779">
        <time>1970-01-01T00:00:00+00:00</time>
        <ele>3295.0</ele>
      </trkpt>
      <trkpt lat="46.525317" lon="8.131776">
        <time>1970-01-01T00:00:00+00:00</time>
        <ele>3296.0</ele>
      </trkpt>
      <trkpt lat="46.525207" lon="8.133231">
        <time>1970-01-01T00:00:00+00:00</time>
        <ele>3285.0</ele>
      </trkpt>
      <trkpt lat="46.525106" lon="8.133627">
        <time>1970-01-01T00:00:00+00:00</time>
        <ele>3280.0</ele>
      </trkpt>
      <trkpt lat="46.524799" lon="8.134312">
        <time>1970-01-01T00:00:00+00:00</time>
        <ele>3271.0</ele>
      </trkpt>
      <trkpt lat="46.523764" lon="8.135298">
        <time>1970-01-01T00:00:00+00:00</time>
        <ele>3252.0</ele>
      </trkpt>
      <trkpt lat="46.522366" lon="8.136011">
        <time>1970-01-01T00:00:00+00:00</time>
        <ele>3204.0</ele>
      </trkpt>
      <trkpt lat="46.522177" lon="8.136208">
        <time>1970-01-01T00:00:00+00:00</time>
        <ele>3201.0</ele>
      </trkpt>
      <trkpt lat="46.522004" lon="8.136585">
        <time>1970-01-01T00:00:00+00:00</time>
        <ele>3200.0</ele>
      </trkpt>
      <trkpt lat="46.521397" lon="8.136834">
        <time>1970-01-01T00:00:00+00:00</time>
        <ele>3179.0</ele>
      </trkpt>
      <trkpt lat="46.52123" lon="8.137026">
        <time>1970-01-01T00:00:00+00:00</time>
        <ele>3172.0</ele>
      </trkpt>
      <trkpt lat="46.521168" lon="8.136933">
        <time>1970-01-01T00:00:00+00:00</time>
        <ele>3168.0</ele>
      </trkpt>
      <trkpt lat="46.521195" lon="8.136985">
        <time>1970-01-01T00:00:00+00:00</time>
        <ele>3170.0</ele>
      </trkpt>
      <trkpt lat="46.52123" lon="8.136889">
        <time>1970-01-01T00:00:00+00:00</time>
        <ele>3170.0</ele>
      </trkpt>
      <trkpt lat="46.520959" lon="8.137273">
        <time>1970-01-01T00:00:00+00:00</time>
        <ele>3161.0</ele>
      </trkpt>
      <trkpt lat="46.520986" lon="8.136893">
        <time>1970-01-01T00:00:00+00:00</time>
        <ele>3157.0</ele>
      </trkpt>
      <trkpt lat="46.52109" lon="8.136659">
        <time>1970-01-01T00:00:00+00:00</time>
        <ele>3159.0</ele>
      </trkpt>
      <trkpt lat="46.52123" lon="8.135821">
        <time>1970-01-01T00:00:00+00:00</time>
        <ele>3153.0</ele>
      </trkpt>
      <trkpt lat="46.521292" lon="8.135793">
        <time>1970-01-01T00:00:00+00:00</time>
        <ele>3157.0</ele>
      </trkpt>
      <trkpt lat="46.521337" lon="8.135506">
        <time>1970-01-01T00:00:00+00:00</time>
        <ele>3155.0</ele>
      </trkpt>
      <trkpt lat="46.521209" lon="8.135508">
        <time>1970-01-01T00:00:00+00:00</time>
        <ele>3146.0</ele>
      </trkpt>
      <trkpt lat="46.521051" lon="8.135638">
        <time>1970-01-01T00:00:00+00:00</time>
        <ele>3137.0</ele>
      </trkpt>
      <trkpt lat="46.521042" lon="8.135584">
        <time>1970-01-01T00:00:00+00:00</time>
        <ele>3135.0</ele>
      </trkpt>
      <trkpt lat="46.521079" lon="8.135638">
        <time>1970-01-01T00:00:00+00:00</time>
        <ele>3139.0</ele>
      </trkpt>
      <trkpt lat="46.521063" lon="8.135587">
        <time>1970-01-01T00:00:00+00:00</time>
        <ele>3137.0</ele>
      </trkpt>
      <trkpt lat="46.521037" lon="8.135676">
        <time>1970-01-01T00:00:00+00:00</time>
        <ele>3136.0</ele>
      </trkpt>
      <trkpt lat="46.520939" lon="8.135676">
        <time>1970-01-01T00:00:00+00:00</time>
        <ele>3126.0</ele>
      </trkpt>
      <trkpt lat="46.52" lon="8.137636">
        <time>1970-01-01T00:00:00+00:00</time>
        <ele>3095.0</ele>
      </trkpt>
      <trkpt lat="46.520081" lon="8.137021">
        <time>1970-01-01T00:00:00+00:00</time>
        <ele>3084.0</ele>
      </trkpt>
      <trkpt lat="46.520105" lon="8.135903">
        <time>1970-01-01T00:00:00+00:00</time>
        <ele>3069.0</ele>
      </trkpt>
      <trkpt lat="46.520264" lon="8.135615">
        <time>1970-01-01T00:00:00+00:00</time>
        <ele>3079.0</ele>
      </trkpt>
      <trkpt lat="46.520124" lon="8.135247">
        <time>1970-01-01T00:00:00+00:00</time>
        <ele>3070.0</ele>
      </trkpt>
      <trkpt lat="46.520016" lon="8.1353">
        <time>1970-01-01T00:00:00+00:00</time>
        <ele>3065.0</ele>
      </trkpt>
      <trkpt lat="46.519869" lon="8.13551">
        <time>1970-01-01T00:00:00+00:00</time>
        <ele>3057.0</ele>
      </trkpt>
      <trkpt lat="46.519677" lon="8.135459">
        <time>1970-01-01T00:00:00+00:00</time>
        <ele>3048.0</ele>
      </trkpt>
      <trkpt lat="46.519688" lon="8.135287">
        <time>1970-01-01T00:00:00+00:00</time>
        <ele>3049.0</ele>
      </trkpt>
      <trkpt lat="46.519444" lon="8.13493">
        <time>1970-01-01T00:00:00+00:00</time>
        <ele>3039.0</ele>
      </trkpt>
      <trkpt lat="46.519377" lon="8.13444">
        <time>1970-01-01T00:00:00+00:00</time>
        <ele>3029.0</ele>
      </trkpt>
      <trkpt lat="46.519167" lon="8.134597">
        <time>1970-01-01T00:00:00+00:00</time>
        <ele>3028.0</ele>
      </trkpt>
      <trkpt lat="46.518898" lon="8.134657">
        <time>1970-01-01T00:00:00+00:00</time>
        <ele>3023.0</ele>
      </trkpt>
      <trkpt lat="46.518367" lon="8.134357">
        <time>1970-01-01T00:00:00+00:00</time>
        <ele>2998.0</ele>
      </trkpt>
      <trkpt lat="46.518344" lon="8.134125">
        <time>1970-01-01T00:00:00+00:00</time>
        <ele>2991.0</ele>
      </trkpt>
      <trkpt lat="46.518647" lon="8.133355">
        <time>1970-01-01T00:00:00+00:00</time>
        <ele>2978.0</ele>
      </trkpt>
      <trkpt lat="46.518632" lon="8.133131">
        <time>1970-01-01T00:00:00+00:00</time>
        <ele>2973.0</ele>
      </trkpt>
      <trkpt lat="46.518753" lon="8.132759">
        <time>1970-01-01T00:00:00+00:00</time>
        <ele>2969.0</ele>
      </trkpt>
      <trkpt lat="46.518731" lon="8.132153">
        <time>1970-01-01T00:00:00+00:00</time>
        <ele>2954.0</ele>
      </trkpt>
      <trkpt lat="46.518533" lon="8.132404">
        <time>1970-01-01T00:00:00+00:00</time>
        <ele>2955.0</ele>
      </trkpt>
      <trkpt lat="46.518296" lon="8.132502">
        <time>1970-01-01T00:00:00+00:00</time>
        <ele>2949.0</ele>
      </trkpt>
      <trkpt lat="46.518316" lon="8.131081">
        <time>1970-01-01T00:00:00+00:00</time>
        <ele>2911.0</ele>
      </trkpt>
      <trkpt lat="46.518174" lon="8.130299">
        <time>1970-01-01T00:00:00+00:00</time>
        <ele>2906.0</ele>
      </trkpt>
      <trkpt lat="46.518408" lon="8.129664">
        <time>1970-01-01T00:00:00+00:00</time>
        <ele>2908.0</ele>
      </trkpt>
      <trkpt lat="46.518426" lon="8.129399">
        <time>1970-01-01T00:00:00+00:00</time>
        <ele>2904.0</ele>
      </trkpt>
      <trkpt lat="46.518182" lon="8.128623">
        <time>1970-01-01T00:00:00+00:00</time>
        <ele>2883.0</ele>
      </trkpt>
      <trkpt lat="46.518033" lon="8.128787">
        <time>1970-01-01T00:00:00+00:00</time>
        <ele>2882.0</ele>
      </trkpt>
      <trkpt lat="46.517908" lon="8.128716">
        <time>1970-01-01T00:00:00+00:00</time>
        <ele>2876.0</ele>
      </trkpt>
      <trkpt lat="46.517798" lon="8.128243">
        <time>1970-01-01T00:00:00+00:00</time>
        <ele>2862.0</ele>
      </trkpt>
      <trkpt lat="46.517702" lon="8.128314">
        <time>1970-01-01T00:00:00+00:00</time>
        <ele>2857.0</ele>
      </trkpt>
      <trkpt lat="46.517629" lon="8.128488">
        <time>1970-01-01T00:00:00+00:00</time>
        <ele>2856.0</ele>
      </trkpt>
      <trkpt lat="46.517383" lon="8.128459">
        <time>1970-01-01T00:00:00+00:00</time>
        <ele>2844.0</ele>
      </trkpt>
      <trkpt lat="46.517324" lon="8.128615">
        <time>1970-01-01T00:00:00+00:00</time>
        <ele>2845.0</ele>
      </trkpt>
      <trkpt lat="46.51717" lon="8.128529">
        <time>1970-01-01T00:00:00+00:00</time>
        <ele>2833.0</ele>
      </trkpt>
      <trkpt lat="46.51705" lon="8.128595">
        <time>1970-01-01T00:00:00+00:00</time>
        <ele>2828.0</ele>
      </trkpt>
      <trkpt lat="46.516919" lon="8.128568">
        <time>1970-01-01T00:00:00+00:00</time>
        <ele>2822.0</ele>
      </trkpt>
      <trkpt lat="46.516923" lon="8.128065">
        <time>1970-01-01T00:00:00+00:00</time>
        <ele>2817.0</ele>
      </trkpt>
      <trkpt lat="46.517018" lon="8.12748">
        <time>1970-01-01T00:00:00+00:00</time>
        <ele>2818.0</ele>
      </trkpt>
      <trkpt lat="46.516999" lon="8.126955">
        <time>1970-01-01T00:00:00+00:00</time>
        <ele>2823.0</ele>
      </trkpt>
      <trkpt lat="46.517187" lon="8.12578">
        <time>1970-01-01T00:00:00+00:00</time>
        <ele>2837.0</ele>
      </trkpt>
      <trkpt lat="46.517346" lon="8.123665">
        <time>1970-01-01T00:00:00+00:00</time>
        <ele>2852.0</ele>
      </trkpt>
      <trkpt lat="46.517674" lon="8.122192">
        <time>1970-01-01T00:00:00+00:00</time>
        <ele>2863.0</ele>
      </trkpt>
      <trkpt lat="46.517879" lon="8.120185">
        <time>1970-01-01T00:00:00+00:00</time>
        <ele>2877.0</ele>
      </trkpt>
      <trkpt lat="46.517947" lon="8.118981">
        <time>1970-01-01T00:00:00+00:00</time>
        <ele>2880.0</ele>
      </trkpt>
      <trkpt lat="46.518108" lon="8.118011">
        <time>1970-01-01T00:00:00+00:00</time>
        <ele>2881.0</ele>
      </trkpt>
      <trkpt lat="46.518376" lon="8.117064">
        <time>1970-01-01T00:00:00+00:00</time>
        <ele>2888.0</ele>
      </trkpt>
      <trkpt lat="46.518833" lon="8.116057">
        <time>1970-01-01T00:00:00+00:00</time>
        <ele>2904.0</ele>
      </trkpt>
      <trkpt lat="46.519773" lon="8.114375">
        <time>1970-01-01T00:00:00+00:00</time>
        <ele>2931.0</ele>
      </trkpt>
      <trkpt lat="46.520663" lon="8.11307">
        <time>1970-01-01T00:00:00+00:00</time>
        <ele>2941.0</ele>
      </trkpt>
      <trkpt lat="46.521151" lon="8.112503">
        <time>1970-01-01T00:00:00+00:00</time>
        <ele>2952.0</ele>
      </trkpt>
      <trkpt lat="46.521599" lon="8.112433">
        <time>1970-01-01T00:00:00+00:00</time>
        <ele>2969.0</ele>
      </trkpt>
      <trkpt lat="46.521816" lon="8.112514">
        <time>1970-01-01T00:00:00+00:00</time>
        <ele>2976.0</ele>
      </trkpt>
      <trkpt lat="46.521866" lon="8.112707">
        <time>1970-01-01T00:00:00+00:00</time>
        <ele>2983.0</ele>
      </trkpt>
      <trkpt lat="46.521844" lon="8.113048">
        <time>1970-01-01T00:00:00+00:00</time>
        <ele>2995.0</ele>
      </trkpt>
      <trkpt lat="46.522171" lon="8.113509">
        <time>1970-01-01T00:00:00+00:00</time>
        <ele>3023.0</ele>
      </trkpt>
      <trkpt lat="46.522655" lon="8.113355">
        <time>1970-01-01T00:00:00+00:00</time>
        <ele>3019.0</ele>
      </trkpt>
      <trkpt lat="46.522508" lon="8.113841">
        <time>1970-01-01T00:00:00+00:00</time>
        <ele>3038.0</ele>
      </trkpt>
      <trkpt lat="46.522447" lon="8.114167">
        <time>1970-01-01T00:00:00+00:00</time>
        <ele>3052.0</ele>
      </trkpt>
      <trkpt lat="46.522481" lon="8.114194">
        <time>1970-01-01T00:00:00+00:00</time>
        <ele>3053.0</ele>
      </trkpt>
      <trkpt lat="46.522312" lon="8.114223">
        <time>1970-01-01T00:00:00+00:00</time>
        <ele>3054.0</ele>
      </trkpt>
      <trkpt lat="46.522103" lon="8.114149">
        <time>1970-01-01T00:00:00+00:00</time>
        <ele>3051.0</ele>
      </trkpt>
      <trkpt lat="46.522059" lon="8.114201">
        <time>1970-01-01T00:00:00+00:00</time>
        <ele>3053.0</ele>
      </trkpt>
      <trkpt lat="46.52227" lon="8.114367">
        <time>1970-01-01T00:00:00+00:00</time>
        <ele>3057.0</ele>
      </trkpt>
      <trkpt lat="46.521854" lon="8.114198">
        <time>1970-01-01T00:00:00+00:00</time>
        <ele>3048.0</ele>
      </trkpt>
      <trkpt lat="46.521974" lon="8.114296">
        <time>1970-01-01T00:00:00+00:00</time>
        <ele>3054.0</ele>
      </trkpt>
      <trkpt lat="46.521881" lon="8.114314">
        <time>1970-01-01T00:00:00+00:00</time>
        <ele>3052.0</ele>
      </trkpt>
      <trkpt lat="46.521834" lon="8.114484">
        <time>1970-01-01T00:00:00+00:00</time>
        <ele>3054.0</ele>
      </trkpt>
      <trkpt lat="46.52186" lon="8.114544">
        <time>1970-01-01T00:00:00+00:00</time>
        <ele>3056.0</ele>
      </trkpt>
      <trkpt lat="46.52188" lon="8.114405">
        <time>1970-01-01T00:00:00+00:00</time>
        <ele>3054.0</ele>
      </trkpt>
      <trkpt lat="46.521781" lon="8.114421">
        <time>1970-01-01T00:00:00+00:00</time>
        <ele>3051.0</ele>
      </trkpt>
      <trkpt lat="46.521814" lon="8.114364">
        <time>1970-01-01T00:00:00+00:00</time>
        <ele>3051.0</ele>
      </trkpt>
      <trkpt lat="46.521879" lon="8.114493">
        <time>1970-01-01T00:00:00+00:00</time>
        <ele>3055.0</ele>
      </trkpt>
      <trkpt lat="46.521817" lon="8.114407">
        <time>1970-01-01T00:00:00+00:00</time>
        <ele>3052.0</ele>
      </trkpt>
      <trkpt lat="46.521885" lon="8.11445">
        <time>1970-01-01T00:00:00+00:00</time>
        <ele>3055.0</ele>
      </trkpt>
      <trkpt lat="46.52184" lon="8.114355">
        <time>1970-01-01T00:00:00+00:00</time>
        <ele>3052.0</ele>
      </trkpt>
      <trkpt lat="46.521893" lon="8.114425">
        <time>1970-01-01T00:00:00+00:00</time>
        <ele>3054.0</ele>
      </trkpt>
    </trkseg>
  </trk>
</gpx>
